Project,Study,Ord_Occ,Event_Num,Cast_ID,Date_Time_UTC,Date_Time_PST,Lat_Dec,Lon_Dec,Sta_ID,Line,Sta,Depth,Pressure,PrQ,Temp1,Temp1Q,Temp2,Temp2Q,TempAve,Salt1,Salt1Q,Salt1_Corr,Salt2,Salt2Q,Salt2_Corr,SaltAve_Corr,Ox1,Ox1Q,Ox1_CruiseCorr,Ox1_StaCorr,Ox2,Ox2Q,Ox2_CruiseCorr,Ox2_StaCorr,OxAve_StaCorr,Ox1uM,Ox1uM_CruiseCorr,Ox1uM_StaCorr,Ox2uM,Ox2uM_CruiseCorr,Ox2uM_StaCorr,OxAveuM_StaCorr,FluorV,FluorQ,EstChl_CruiseCorr,EstChl_StaCorr,ISUSV,ISUSQ,EstNO3_CruiseCorr,EstNO3_StaCorr,SigThetaTS1,SigThetaTS1Q,SigThetaTS2,SigThetaTS2Q,BAT,XMiss,TransQ,pH,pHQ,SPAR,SPARQ,PAR,PARQ,PoT1,PoT2,DynHt,SVA,OxSat1,OxSat2,BTL_Depth,BTL_Temp,SaltB,OxB,OxBuM,Chl-a,Phaeo,NO3,NO2,NH4,PO4,SIL
CalCOFI,2101RL,014,,2101_014d,18-Jan-2021 11:49:18,18-Jan-2021 03:49:18,30.84510,-121.58815,093.3 090.0,093.3,090.0,3.000,3.021,,15.3538,,15.3541,,15.3540,33.2030,,33.2088,33.1969,,33.1989,33.2039,5.4927,,5.7486,5.7583,5.3991,,5.7324,5.7120,5.7352,239.435,250.9008,251.2278,235.355,266.7079,249.2084,250.2181,0.0482,,0.1468,0.1521, ,, , ,24.5098,,24.5050,,0.7140,83.6534,,,,2.5267E+00,,1.0000E-12,,15.3534,15.3536,0.0060,341.548,96.103,94.462,2,,33.2005,5.774,251.88,0.182,0.063,,,,,
CalCOFI,2101RL,014,,2101_014d,18-Jan-2021 11:49:34,18-Jan-2021 03:49:34,30.84502,-121.58818,093.3 090.0,093.3,090.0,4.000,4.028,,15.3540,,15.3543,,15.3542,33.2031,,33.2089,33.1970,,33.1990,33.2040,5.4955,,5.7515,5.7613,5.4199,,5.7545,5.7342,5.7478,239.555,251.0264,251.3541,236.263,266.8413,250.1788,250.7665,0.0476,,0.1418,0.1486, ,, , ,24.5098,,24.5051,,0.7142,83.6489,,,,2.0860E+00,,1.0000E-12,,15.3534,15.3536,0.0143,341.573,96.152,94.827,,,,,,,,,,,,
CalCOFI,2101RL,014,,2101_014d,18-Jan-2021 11:49:35,18-Jan-2021 03:49:35,30.84504,-121.58818,093.3 090.0,093.3,090.0,5.000,5.035,,15.3540,,15.3543,,15.3542,33.2031,,33.2089,33.1970,,33.1990,33.2040,5.4896,,5.7453,5.7551,5.4460,,5.7822,5.7621,5.7586,239.299,250.7584,251.0848,237.402,266.5566,251.3960,251.2404,0.0476,,0.1418,0.1486, ,, , ,24.5099,,24.5051,,0.7139,83.6544,,,,1.9211E+00,,1.0000E-12,,15.3532,15.3535,0.0172,341.600,96.049,95.284,,,,,,,,,,,,
CalCOFI,2101RL,014,,2101_014d,18-Jan-2021 11:49:37,18-Jan-2021 03:49:37,30.84504,-121.58818,093.3 090.0,093.3,090.0,6.000,6.042,,15.3539,,15.3544,,15.3542,33.2033,,33.2091,33.1971,,33.1991,33.2041,5.5050,,5.7614,5.7713,5.4508,,5.7873,5.7672,5.7693,239.970,251.4608,251.7907,237.612,267.3028,251.6204,251.7056,0.0452,,0.1222,0.1344, ,, , ,24.5101,,24.5052,,0.7134,83.6655,,,,2.7465E+00,,1.0000E-12,,15.3530,15.3535,0.0207,341.611,96.319,95.369,,,,,,,,,,,,
CalCOFI,2101RL,014,,2101_014d,18-Jan-2021 11:49:38,18-Jan-2021 03:49:38,30.84502,-121.58822,093.3 090.0,093.3,090.0,7.000,7.049,,15.3550,,15.3555,,15.3553,33.2034,,33.2092,33.1972,,33.1992,33.2042,5.5138,,5.7706,5.7805,5.4489,,5.7853,5.7652,5.7729,240.353,251.8617,252.1937,237.527,267.7287,251.5296,251.8617,0.0461,,0.1295,0.1397, ,, , ,24.5099,,24.5050,,0.7134,83.6651,,,,1.8554E+00,,1.0000E-12,,15.3539,15.3544,0.0241,341.656,96.474,95.337,,,,,,,,,,,,
CalCOFI,2101RL,014,,2101_014d,18-Jan-2021 11:49:39,18-Jan-2021 03:49:39,30.84502,-121.58822,093.3 090.0,093.3,090.0,8.000,8.056,,15.3556,,15.3561,,15.3559,33.2033,,33.2091,33.1971,,33.1991,33.2041,5.5119,,5.7687,5.7785,5.4366,,5.7722,5.7521,5.7653,240.270,251.7748,252.1064,236.989,267.6364,250.9547,251.5306,0.0456,,0.1255,0.1368, ,, , ,24.5097,,24.5048,,0.7134,83.6651,,,,1.8474E+00,,1.0000E-12,,15.3544,15.3548,0.0275,341.704,96.442,95.122,,,,,,,,,,,,
CalCOFI,2101RL,014,,2101_014d,18-Jan-2021 11:49:41,18-Jan-2021 03:49:41,30.84501,-121.58822,093.3 090.0,093.3,090.0,9.000,9.063,,15.3558,,15.3561,,15.3560,33.2032,,33.2090,33.1970,,33.1990,33.2040,5.5008,,5.7570,5.7669,5.4344,,5.7699,5.7497,5.7583,239.787,251.2692,251.5982,236.897,267.0993,250.8563,251.2273,0.0463,,0.1312,0.1409, ,, , ,24.5096,,24.5048,,0.7135,83.6624,,,,2.4462E+00,,1.0000E-12,,15.3544,15.3547,0.0310,341.742,96.249,95.085,,,,,,,,,,,,
CalCOFI,2101RL,014,,2101_014d,18-Jan-2021 11:49:43,18-Jan-2021 03:49:43,30.84500,-121.58822,093.3 090.0,093.3,090.0,10.000,10.069,,15.3570,,15.3576,,15.3573,33.2031,,33.2089,33.1970,,33.1990,33.2040,5.4986,,5.7547,5.7645,5.4405,,5.7764,5.7562,5.7604,239.695,251.1729,251.5014,237.160,266.9970,251.1374,251.3194,0.0462,,0.1304,0.1403, ,, , ,24.5094,,24.5045,,0.7137,83.6579,,,,3.0533E+00,,1.0000E-12,,15.3554,15.3561,0.0344,341.800,96.214,95.194,,,,,,,,,,,,
CalCOFI,2101RL,014,,2101_014d,18-Jan-2021 11:49:45,18-Jan-2021 03:49:45,30.84500,-121.58824,093.3 090.0,093.3,090.0,11.000,11.076,,15.3575,,15.3579,,15.3577,33.2031,,33.2089,33.1971,,33.1991,33.2040,5.4997,,5.7559,5.7657,5.4325,,5.7679,5.7477,5.7567,239.742,251.2221,251.5509,236.813,267.0493,250.7666,251.1588,0.0467,,0.1345,0.1433, ,, , ,24.5093,,24.5046,,0.7132,83.6689,,,,3.0989E+00,,1.0000E-12,,15.3558,15.3562,0.0379,341.837,96.234,95.055,11,,33.1997,5.767,251.57,0.249,0.015,,,,,
CalCOFI,2101RL,014,,2101_014d,18-Jan-2021 11:49:46,18-Jan-2021 03:49:46,30.84500,-121.58824,093.3 090.0,093.3,090.0,12.000,12.083,,15.3587,,15.3596,,15.3592,33.2034,,33.2092,33.1971,,33.1991,33.2042,5.5059,,5.7624,5.7722,5.4333,,5.7687,5.7486,5.7604,240.011,251.5037,251.8339,236.845,267.3484,250.8008,251.3174,0.0464,,0.1320,0.1415, ,, , ,24.5092,,24.5042,,0.7139,83.6538,,,,2.6029E+00,,1.0000E-12,,15.3569,15.3578,0.0413,341.875,96.344,95.071,,,,,,,,,,,,
CalCOFI,2101RL,014,,2101_014d,18-Jan-2021 11:49:47,18-Jan-2021 03:49:47,30.84499,-121.58826,093.3 090.0,093.3,090.0,13.000,13.090,,15.3599,,15.3608,,15.3604,33.2032,,33.2090,33.1972,,33.1992,33.2041,5.5105,,5.7672,5.7771,5.4350,,5.7705,5.7504,5.7638,240.211,251.7131,252.0443,236.920,267.5708,250.8809,251.4626,0.0470,,0.1369,0.1450, ,, , ,24.5089,,24.5041,,0.7138,83.6567,,,,2.3466E+00,,1.0000E-12,,15.3579,15.3588,0.0447,341.941,96.426,95.103,,,,,,,,,,,,
CalCOFI,2101RL,014,,2101_014d,18-Jan-2021 11:49:49,18-Jan-2021 03:49:49,30.84498,-121.58828,093.3 090.0,093.3,090.0,14.000,14.097,,15.3622,,15.3626,,15.3624,33.2033,,33.2091,33.1971,,33.1991,33.2041,5.4957,,5.7517,5.7615,5.4451,,5.7812,5.7612,5.7614,239.565,251.0368,251.3646,237.361,266.8524,251.3522,251.3584,0.0461,,0.1295,0.1397, ,, , ,24.5085,,24.5036,,0.7136,83.6601,,,,2.1346E+00,,1.0000E-12,,15.3601,15.3605,0.0482,342.006,96.172,95.284,,,,,,,,,,,,
CalCOFI,2101RL,014,,2101_014d,18-Jan-2021 11:49:53,18-Jan-2021 03:49:53,30.84496,-121.58828,093.3 090.0,093.3,090.0,15.000,15.104,,15.3623,,15.3627,,15.3625,33.2032,,33.2090,33.1971,,33.1991,33.2041,5.4912,,5.7470,5.7568,5.4440,,5.7801,5.7600,5.7584,239.368,250.8306,251.1574,237.315,266.6334,251.3030,251.2302,0.0443,,0.1148,0.1291, ,, , ,24.5084,,24.5036,,0.7133,83.6672,,,,2.5215E+00,,1.0000E-12,,15.3601,15.3605,0.0516,342.043,96.093,95.265,,,,,,,,,,,,
CalCOFI,2101RL,014,,2101_014d,18-Jan-2021 11:50:03,18-Jan-2021 03:50:03,30.84489,-121.58834,093.3 090.0,093.3,090.0,16.000,16.111,,15.3622,,15.3626,,15.3624,33.2032,,33.2090,33.1970,,33.1990,33.2040,5.5002,,5.7564,5.7662,5.4466,,5.7828,5.7628,5.7645,239.764,251.2452,251.5740,237.429,267.0737,251.4249,251.4995,0.0443,,0.1148,0.1291, ,, , ,24.5084,,24.5036,,0.7141,83.6495,,,,2.7765E+00,,1.0000E-12,,15.3597,15.3601,0.0554,342.072,96.251,95.311,,,,,,,,,,,,
CalCOFI,2101RL,014,,2101_014d,18-Jan-2021 11:50:07,18-Jan-2021 03:50:07,30.84491,-121.58835,093.3 090.0,093.3,090.0,17.000,17.118,,15.3617,,15.3619,,15.3618,33.2031,,33.2089,33.1970,,33.1990,33.2040,5.4959,,5.7519,5.7617,5.4649,,5.8023,5.7823,5.7720,239.576,251.0484,251.3762,238.224,266.8647,252.2744,251.8253,0.0450,,0.1205,0.1332, ,, , ,24.5086,,24.5038,,0.7141,83.6497,,,,2.7195E+00,,1.0000E-12,,15.3591,15.3593,0.0589,342.090,96.175,95.629,,,,,,,,,,,,
CalCOFI,2101RL,014,,2101_014d,18-Jan-2021 11:50:14,18-Jan-2021 03:50:14,30.84487,-121.58836,093.3 090.0,093.3,090.0,18.000,18.125,,15.3620,,15.3623,,15.3622,33.2030,,33.2088,33.1969,,33.1989,33.2039,5.4862,,5.7418,5.7515,5.4652,,5.8026,5.7826,5.7671,239.155,250.6077,250.9332,238.239,266.3965,252.2905,251.6119,0.0458,,0.1271,0.1379, ,, , ,24.5085,,24.5037,,0.7133,83.6681,,,,2.6617E+00,,1.0000E-12,,15.3592,15.3595,0.0623,342.132,96.006,95.636,,,,,,,,,,,,
CalCOFI,2101RL,014,,2101_014d,18-Jan-2021 11:50:15,18-Jan-2021 03:50:15,30.84488,-121.58836,093.3 090.0,093.3,090.0,19.000,19.132,,15.3617,,15.3620,,15.3619,33.2030,,33.2088,33.1970,,33.1990,33.2039,5.5115,,5.7682,5.7781,5.4519,,5.7885,5.7684,5.7733,240.253,251.7570,252.0885,237.658,267.6175,251.6696,251.8791,0.0472,,0.1386,0.1462, ,, , ,24.5085,,24.5038,,0.7138,83.6562,,,,2.2975E+00,,1.0000E-12,,15.3588,15.3591,0.0658,342.155,96.447,95.401,,,,,,,,,,,,
CalCOFI,2101RL,014,,2101_014d,18-Jan-2021 11:50:17,18-Jan-2021 03:50:17,30.84487,-121.58836,093.3 090.0,093.3,090.0,20.000,20.139,,15.3619,,15.3623,,15.3621,33.2031,,33.2089,33.1971,,33.1991,33.2040,5.4969,,5.7530,5.7628,5.4611,,5.7982,5.7783,5.7706,239.619,251.0934,251.4214,238.060,266.9125,252.0992,251.7603,0.0459,,0.1279,0.1385, ,, , ,24.5086,,24.5039,,0.7135,83.6620,,,,2.4458E+00,,1.0000E-12,,15.3589,15.3593,0.0692,342.181,96.193,95.564,,,,,,,,,,,,
CalCOFI,2101RL,014,,2101_014d,18-Jan-2021 11:50:20,18-Jan-2021 03:50:20,30.84486,-121.58836,093.3 090.0,093.3,090.0,21.000,21.146,,15.3619,,15.3621,,15.3620,33.2031,,33.2089,33.1971,,33.1991,33.2040,5.5025,,5.7588,5.7687,5.4656,,5.8030,5.7831,5.7759,239.863,251.3488,251.6782,238.255,267.1838,252.3076,251.9929,0.0460,,0.1287,0.1391, ,, , ,24.5086,,24.5039,,0.7143,83.6468,,,,3.0811E+00,,1.0000E-12,,15.3587,15.3590,0.0727,342.211,96.291,95.642,,,,,,,,,,,,
CalCOFI,2101RL,014,,2101_014d,18-Jan-2021 11:50:22,18-Jan-2021 03:50:22,30.84486,-121.58836,093.3 090.0,093.3,090.0,22.000,22.153,,15.3616,,15.3620,,15.3618,33.2030,,33.2088,33.1970,,33.1990,33.2039,5.4967,,5.7527,5.7626,5.4613,,5.7984,5.7785,5.7706,239.612,251.0860,251.4141,238.069,266.9047,252.1088,251.7615,0.0475,,0.1410,0.1480, ,, , ,24.5087,,24.5040,,0.7134,83.6654,,,,2.8356E+00,,1.0000E-12,,15.3582,15.3586,0.0761,342.235,96.189,95.566,,,,,,,,,,,,
CalCOFI,2101RL,014,,2101_014d,18-Jan-2021 11:50:24,18-Jan-2021 03:50:24,30.84484,-121.58838,093.3 090.0,093.3,090.0,23.000,23.161,,15.3599,,15.3603,,15.3601,33.2029,,33.2087,33.1968,,33.1988,33.2038,5.4928,,5.7487,5.7584,5.4598,,5.7969,5.7769,5.7677,239.442,250.9081,251.2352,238.004,266.7157,252.0393,251.6373,0.0474,,0.1402,0.1474, ,, , ,24.5090,,24.5042,,0.7136,83.6611,,,,2.4116E+00,,1.0000E-12,,15.3564,15.3568,0.0796,342.235,96.118,95.537,,,,,,,,,,,,
CalCOFI,2101RL,014,,2101_014d,18-Jan-2021 11:50:26,18-Jan-2021 03:50:26,30.84484,-121.58838,093.3 090.0,093.3,090.0,24.000,24.168,,15.3602,,15.3608,,15.3605,33.2029,,33.2087,33.1969,,33.1989,33.2038,5.4975,,5.7536,5.7634,5.4653,,5.8027,5.7827,5.7731,239.646,251.1216,251.4499,238.243,266.9425,252.2948,251.8724,0.0457,,0.1263,0.1374, ,, , ,24.5090,,24.5042,,0.7137,83.6579,,,,1.9580E+00,,1.0000E-12,,15.3565,15.3571,0.0830,342.266,96.200,95.634,,,,,,,,,,,,
CalCOFI,2101RL,014,,2101_014d,18-Jan-2021 11:50:28,18-Jan-2021 03:50:28,30.84482,-121.58840,093.3 090.0,093.3,090.0,25.000,25.175,,15.3588,,15.3591,,15.3590,33.2027,,33.2085,33.1965,,33.1985,33.2035,5.4863,,5.7419,5.7516,5.4548,,5.7915,5.7715,5.7616,239.157,250.6097,250.9353,237.782,266.3987,251.8021,251.3687,0.0463,,0.1312,0.1409, ,, , ,24.5091,,24.5043,,0.7136,83.6614,,,,2.1036E+00,,1.0000E-12,,15.3550,15.3553,0.0865,342.282,96.001,95.446,,,,,,,,,,,,
CalCOFI,2101RL,014,,2101_014d,18-Jan-2021 11:50:30,18-Jan-2021 03:50:30,30.84483,-121.58840,093.3 090.0,093.3,090.0,26.000,26.182,,15.3579,,15.3582,,15.3581,33.2026,,33.2084,33.1965,,33.1985,33.2035,5.5030,,5.7593,5.7692,5.4505,,5.7870,5.7669,5.7681,239.884,251.3708,251.7003,237.597,267.2072,251.6044,251.6524,0.0468,,0.1353,0.1439, ,, , ,24.5093,,24.5045,,0.7138,83.6572,,,,2.2272E+00,,1.0000E-12,,15.3539,15.3542,0.0899,342.295,96.291,95.370,26,,33.1991,5.775,251.91,0.186,0.063,,,,,
CalCOFI,2101RL,014,,2101_014d,18-Jan-2021 11:50:31,18-Jan-2021 03:50:31,30.84484,-121.58840,093.3 090.0,093.3,090.0,27.000,27.189,,15.3577,,15.3579,,15.3578,33.2026,,33.2084,33.1964,,33.1984,33.2034,5.4995,,5.7557,5.7655,5.4520,,5.7886,5.7685,5.7670,239.733,251.2127,251.5414,237.662,267.0393,251.6739,251.6077,0.0464,,0.1320,0.1415, ,, , ,24.5093,,24.5045,,0.7145,83.6414,,,,1.8446E+00,,1.0000E-12,,15.3536,15.3538,0.0933,342.324,96.230,95.395,,,,,,,,,,,,
CalCOFI,2101RL,014,,2101_014d,18-Jan-2021 11:50:33,18-Jan-2021 03:50:33,30.84484,-121.58840,093.3 090.0,093.3,090.0,28.000,28.196,,15.3569,,15.3573,,15.3571,33.2022,,33.2080,33.1963,,33.1983,33.2032,5.5063,,5.7628,5.7726,5.4427,,5.7787,5.7586,5.7656,240.029,251.5226,251.8528,237.258,267.3684,251.2421,251.5475,0.0470,,0.1369,0.1450, ,, , ,24.5093,,24.5046,,0.7137,83.6586,,,,1.8893E+00,,1.0000E-12,,15.3527,15.3531,0.0968,342.361,96.347,95.232,,,,,,,,,,,,
CalCOFI,2101RL,014,,2101_014d,18-Jan-2021 11:50:36,18-Jan-2021 03:50:36,30.84481,-121.58842,093.3 090.0,093.3,090.0,29.000,29.203,,15.3538,,15.3545,,15.3542,33.2018,,33.2076,33.1958,,33.1978,33.2027,5.4914,,5.7472,5.7570,5.4467,,5.7829,5.7629,5.7600,239.377,250.8400,251.1668,237.431,266.6434,251.4270,251.2969,0.0468,,0.1353,0.1439, ,, , ,24.5097,,24.5049,,0.7142,83.6485,,,,2.3337E+00,,1.0000E-12,,15.3494,15.3501,0.1002,342.351,96.079,95.296,,,,,,,,,,,,
CalCOFI,2101RL,014,,2101_014d,18-Jan-2021 11:50:39,18-Jan-2021 03:50:39,30.84480,-121.58842,093.3 090.0,093.3,090.0,30.000,30.210,,15.3590,,15.3594,,15.3592,33.2027,,33.2085,33.1967,,33.1987,33.2036,5.4945,,5.7504,5.7602,5.4360,,5.7716,5.7514,5.7558,239.515,250.9845,251.3120,236.965,266.7968,250.9290,251.1205,0.0480,,0.1451,0.1510, ,, , ,24.5093,,24.5046,,0.7138,83.6555,,,,2.1352E+00,,1.0000E-12,,15.3544,15.3548,0.1037,342.422,96.145,95.118,,,,,,,,,,,,
CalCOFI,2101RL,014,,2101_014d,18-Jan-2021 11:50:40,18-Jan-2021 03:50:40,30.84479,-121.58842,093.3 090.0,093.3,090.0,31.000,31.217,,15.3596,,15.3596,,15.3596,33.2030,,33.2088,33.1970,,33.1990,33.2039,5.4899,,5.7456,5.7554,5.4431,,5.7791,5.7590,5.7572,239.311,250.7710,251.0974,237.274,266.5700,251.2592,251.1783,0.0481,,0.1459,0.1516, ,, , ,24.5094,,24.5047,,0.7146,83.6400,,,,2.0055E+00,,1.0000E-12,,15.3549,15.3549,0.1071,342.441,96.065,95.243,,,,,,,,,,,,
CalCOFI,2101RL,014,,2101_014d,18-Jan-2021 11:50:42,18-Jan-2021 03:50:42,30.84478,-121.58842,093.3 090.0,093.3,090.0,32.000,32.224,,15.3576,,15.3583,,15.3580,33.2028,,33.2086,33.1967,,33.1987,33.2037,5.4926,,5.7485,5.7582,5.4302,,5.7654,5.7452,5.7517,239.431,250.8966,251.2236,236.711,266.7034,250.6576,250.9406,0.0467,,0.1345,0.1433, ,, , ,24.5097,,24.5048,,0.7137,83.6590,,,,2.2448E+00,,1.0000E-12,,15.3527,15.3535,0.1106,342.444,96.109,95.015,,,,,,,,,,,,
CalCOFI,2101RL,014,,2101_014d,18-Jan-2021 11:50:43,18-Jan-2021 03:50:43,30.84478,-121.58843,093.3 090.0,093.3,090.0,33.000,33.231,,15.3536,,15.3571,,15.3554,33.2020,,33.2078,33.1964,,33.1984,33.2031,5.4949,,5.7509,5.7607,5.4340,,5.7695,5.7493,5.7550,239.531,251.0013,251.3289,236.879,266.8146,250.8371,251.0830,0.0472,,0.1386,0.1462, ,, , ,24.5100,,24.5049,,0.7135,83.6632,,,,1.8480E+00,,1.0000E-12,,15.3486,15.3521,0.1140,342.441,96.141,95.080,,,,,,,,,,,,
CalCOFI,2101RL,014,,2101_014d,18-Jan-2021 11:50:45,18-Jan-2021 03:50:45,30.84478,-121.58844,093.3 090.0,093.3,090.0,34.000,34.238,,15.3297,,15.3319,,15.3308,33.1983,,33.2041,33.1927,,33.1947,33.1994,5.5040,,5.7604,5.7702,5.4334,,5.7688,5.7487,5.7595,239.928,251.4168,251.7466,236.850,267.2561,250.8061,251.2764,0.0478,,0.1435,0.1498, ,, , ,24.5125,,24.5077,,0.7140,83.6523,,,,2.5773E+00,,1.0000E-12,,15.3245,15.3268,0.1175,342.240,96.253,95.018,,,,,,,,,,,,
CalCOFI,2101RL,014,,2101_014d,18-Jan-2021 11:50:47,18-Jan-2021 03:50:47,30.84477,-121.58845,093.3 090.0,093.3,090.0,35.000,35.245,,15.3199,,15.3167,,15.3183,33.1979,,33.2037,33.1907,,33.1927,33.1982,5.4929,,5.7488,5.7586,5.4411,,5.7770,5.7569,5.7578,239.442,250.9081,251.2352,237.184,266.7157,251.1630,251.1991,0.0497,,0.1590,0.1610, ,, , ,24.5143,,24.5095,,0.7140,83.6531,,,,3.6125E+00,,1.0000E-12,,15.3146,15.3113,0.1209,342.093,96.039,95.123,,,,,,,,,,,,
CalCOFI,2101RL,014,,2101_014d,18-Jan-2021 11:50:50,18-Jan-2021 03:50:50,30.84474,-121.58847,093.3 090.0,093.3,090.0,36.000,36.252,,15.3165,,15.3179,,15.3172,33.1966,,33.2024,33.1903,,33.1923,33.1974,5.4946,,5.7505,5.7603,5.4445,,5.7806,5.7605,5.7604,239.517,250.9866,251.3141,237.336,266.7991,251.3255,251.3198,0.0504,,0.1648,0.1652, ,, , ,24.5141,,24.5089,,0.7136,83.6602,,,,3.5372E+00,,1.0000E-12,,15.3111,15.3124,0.1244,342.144,96.062,95.186,,,,,,,,,,,,
CalCOFI,2101RL,014,,2101_014d,18-Jan-2021 11:50:53,18-Jan-2021 03:50:53,30.84471,-121.58848,093.3 090.0,093.3,090.0,37.000,37.259,,15.3170,,15.3144,,15.3157,33.1970,,33.2028,33.1902,,33.1922,33.1975,5.4887,,5.7444,5.7541,5.4369,,5.7725,5.7524,5.7533,239.262,250.7197,251.0458,237.003,266.5155,250.9696,251.0077,0.0494,,0.1566,0.1592, ,, , ,24.5143,,24.5097,,0.7133,83.6665,,,,3.6966E+00,,1.0000E-12,,15.3114,15.3088,0.1278,342.153,95.961,95.045,,,,,,,,,,,,
CalCOFI,2101RL,014,,2101_014d,18-Jan-2021 11:50:55,18-Jan-2021 03:50:55,30.84470,-121.58848,093.3 090.0,093.3,090.0,38.000,38.267,,15.3103,,15.3102,,15.3103,33.1957,,33.2015,33.1896,,33.1916,33.1966,5.5042,,5.7606,5.7704,5.4381,,5.7738,5.7537,5.7621,239.934,251.4231,251.7529,237.055,267.2628,251.0252,251.3891,0.0507,,0.1672,0.1669, ,, , ,24.5148,,24.5102,,0.7135,83.6630,,,,3.3731E+00,,1.0000E-12,,15.3045,15.3044,0.1313,342.137,96.217,95.058,,,,,,,,,,,,
CalCOFI,2101RL,014,,2101_014d,18-Jan-2021 11:50:56,18-Jan-2021 03:50:56,30.84470,-121.58848,093.3 090.0,093.3,090.0,39.000,39.274,,15.3088,,15.3089,,15.3089,33.1956,,33.2014,33.1895,,33.1915,33.1965,5.4858,,5.7413,5.7511,5.4357,,5.7713,5.7511,5.7511,239.133,250.5846,250.9101,236.951,266.3720,250.9140,250.9121,0.0533,,0.1885,0.1823, ,, , ,24.5151,,24.5104,,0.7147,83.6363,,,,3.6305E+00,,1.0000E-12,,15.3028,15.3030,0.1347,342.140,95.893,95.014,,,,,,,,,,,,
CalCOFI,2101RL,014,,2101_014d,18-Jan-2021 11:50:57,18-Jan-2021 03:50:57,30.84466,-121.58848,093.3 090.0,093.3,090.0,40.000,40.281,,15.3089,,15.3091,,15.3090,33.1956,,33.2014,33.1895,,33.1915,33.1965,5.4885,,5.7442,5.7539,5.4460,,5.7822,5.7621,5.7580,239.249,250.7061,251.0322,237.400,266.5010,251.3939,251.2131,0.0538,,0.1926,0.1853, ,, , ,24.5151,,24.5104,,0.7139,83.6548,,,,3.6400E+00,,1.0000E-12,,15.3028,15.3030,0.1382,342.166,95.940,95.194,,,,,,,,,,,,
CalCOFI,2101RL,014,,2101_014d,18-Jan-2021 11:51:00,18-Jan-2021 03:51:00,30.84465,-121.58849,093.3 090.0,093.3,090.0,41.000,41.288,,15.3095,,15.3100,,15.3098,33.1957,,33.2015,33.1896,,33.1916,33.1966,5.4940,,5.7499,5.7597,5.4492,,5.7856,5.7655,5.7626,239.491,250.9594,251.2868,237.540,266.7701,251.5435,251.4152,0.0551,,0.2033,0.1930, ,, , ,24.5151,,24.5103,,0.7123,83.6891,,,,2.5251E+00,,1.0000E-12,,15.3033,15.3038,0.1416,342.201,96.038,95.252,,,,,,,,,,,,
CalCOFI,2101RL,014,,2101_014d,18-Jan-2021 11:51:03,18-Jan-2021 03:51:03,30.84464,-121.58851,093.3 090.0,093.3,090.0,42.000,42.295,,15.3095,,15.3095,,15.3095,33.1957,,33.2015,33.1897,,33.1917,33.1966,5.4919,,5.7477,5.7575,5.4313,,5.7666,5.7464,5.7520,239.398,250.8620,251.1889,236.760,266.6667,250.7099,250.9494,0.0514,,0.1730,0.1711, ,, , ,24.5152,,24.5105,,0.7140,83.6533,,,,2.2429E+00,,1.0000E-12,,15.3032,15.3032,0.1451,342.224,96.000,94.939,,,,,,,,,,,,
CalCOFI,2101RL,014,,2101_014d,18-Jan-2021 11:51:04,18-Jan-2021 03:51:04,30.84464,-121.58852,093.3 090.0,093.3,090.0,43.000,43.302,,15.3097,,15.3099,,15.3098,33.1958,,33.2016,33.1897,,33.1917,33.1967,5.4921,,5.7479,5.7577,5.4252,,5.7601,5.7399,5.7488,239.409,250.8735,251.2005,236.494,266.6790,250.4257,250.8131,0.0526,,0.1828,0.1782, ,, , ,24.5152,,24.5105,,0.7139,83.6542,,,,1.8439E+00,,1.0000E-12,,15.3031,15.3034,0.1485,342.252,96.005,94.833,,,,,,,,,,,,
CalCOFI,2101RL,014,,2101_014d,18-Jan-2021 11:51:05,18-Jan-2021 03:51:05,30.84464,-121.58852,093.3 090.0,093.3,090.0,44.000,44.309,,15.3089,,15.3093,,15.3091,33.1959,,33.2017,33.1898,,33.1918,33.1968,5.4888,,5.7445,5.7542,5.4369,,5.7725,5.7524,5.7533,239.266,250.7238,251.0500,237.002,266.5199,250.9685,251.0093,0.0535,,0.1902,0.1835, ,, , ,24.5155,,24.5107,,0.7131,83.6720,,,,1.8474E+00,,1.0000E-12,,15.3022,15.3026,0.1519,342.257,95.946,95.035,,,,,,,,,,,,
CalCOFI,2101RL,014,,2101_014d,18-Jan-2021 11:51:08,18-Jan-2021 03:51:08,30.84462,-121.58852,093.3 090.0,093.3,090.0,45.000,45.316,,15.3080,,15.3083,,15.3082,33.1956,,33.2014,33.1895,,33.1915,33.1965,5.4987,,5.7548,5.7647,5.4347,,5.7702,5.7501,5.7574,239.694,251.1719,251.5004,236.907,266.9959,250.8670,251.1837,0.0534,,0.1894,0.1829, ,, , ,24.5155,,24.5108,,0.7133,83.6673,,,,2.7371E+00,,1.0000E-12,,15.3012,15.3015,0.1554,342.286,96.116,94.995,,,,,,,,,,,,
CalCOFI,2101RL,014,,2101_014d,18-Jan-2021 11:51:10,18-Jan-2021 03:51:10,30.84462,-121.58854,093.3 090.0,093.3,090.0,46.000,46.324,,15.3075,,15.3077,,15.3076,33.1954,,33.2012,33.1895,,33.1915,33.1964,5.4924,,5.7482,5.7580,5.4373,,5.7730,5.7528,5.7554,239.420,250.8851,251.2121,237.022,266.6912,250.9899,251.1010,0.0531,,0.1869,0.1811, ,, , ,24.5155,,24.5109,,0.7138,83.6557,,,,1.8070E+00,,1.0000E-12,,15.3005,15.3008,0.1588,342.313,96.005,95.040,,,,,,,,,,,,
CalCOFI,2101RL,014,,2101_014d,18-Jan-2021 11:51:12,18-Jan-2021 03:51:12,30.84462,-121.58854,093.3 090.0,093.3,090.0,47.000,47.331,,15.3069,,15.3075,,15.3072,33.1953,,33.2011,33.1893,,33.1913,33.1962,5.4824,,5.7378,5.7475,5.4267,,5.7617,5.7415,5.7445,238.987,250.4318,250.7565,236.560,266.2097,250.4962,250.6264,0.0541,,0.1951,0.1870, ,, , ,24.5156,,24.5108,,0.7131,83.6718,,,,2.0956E+00,,1.0000E-12,,15.2998,15.3003,0.1623,342.339,95.830,94.854,,,,,,,,,,,,
CalCOFI,2101RL,014,,2101_014d,18-Jan-2021 11:51:14,18-Jan-2021 03:51:14,30.84458,-121.58854,093.3 090.0,093.3,090.0,48.000,48.338,,15.3074,,15.3077,,15.3076,33.1954,,33.2012,33.1894,,33.1914,33.1963,5.4963,,5.7523,5.7621,5.4436,,5.7796,5.7596,5.7609,239.590,251.0630,251.3909,237.296,266.8802,251.2827,251.3368,0.0550,,0.2025,0.1924, ,, , ,24.5155,,24.5108,,0.7129,83.6761,,,,2.1858E+00,,1.0000E-12,,15.3001,15.3004,0.1657,342.371,96.073,95.150,,,,,,,,,,,,
CalCOFI,2101RL,014,,2101_014d,18-Jan-2021 11:51:17,18-Jan-2021 03:51:17,30.84458,-121.58856,093.3 090.0,093.3,090.0,49.000,49.345,,15.3076,,15.3078,,15.3077,33.1953,,33.2011,33.1894,,33.1914,33.1963,5.5054,,5.7619,5.7717,5.4525,,5.7891,5.7691,5.7704,239.986,251.4775,251.8076,237.682,267.3206,251.6952,251.7514,0.0537,,0.1918,0.1847, ,, , ,24.5155,,24.5109,,0.7128,83.6786,,,,1.8949E+00,,1.0000E-12,,15.3002,15.3004,0.1692,342.405,96.232,95.305,,,,,,,,,,,,
CalCOFI,2101RL,014,,2101_014d,18-Jan-2021 11:51:18,18-Jan-2021 03:51:18,30.84458,-121.58856,093.3 090.0,093.3,090.0,50.000,50.352,,15.3076,,15.3078,,15.3077,33.1953,,33.2011,33.1894,,33.1914,33.1963,5.4917,,5.7475,5.7573,5.4431,,5.7791,5.7590,5.7582,239.390,250.8537,251.1805,237.274,266.6578,251.2592,251.2199,0.0532,,0.1877,0.1817, ,, , ,24.5155,,24.5109,,0.7126,83.6821,,,,1.8938E+00,,1.0000E-12,,15.3000,15.3003,0.1726,342.434,95.993,95.142,,,,,,,,,,,,
CalCOFI,2101RL,014,,2101_014d,18-Jan-2021 11:51:20,18-Jan-2021 03:51:20,30.84456,-121.58856,093.3 090.0,093.3,090.0,51.000,51.359,,15.3077,,15.3081,,15.3079,33.1953,,33.2011,33.1892,,33.1912,33.1962,5.4854,,5.7409,5.7507,5.4279,,5.7630,5.7428,5.7468,239.118,250.5689,250.8943,236.611,266.3554,250.5507,250.7225,0.0539,,0.1935,0.1859, ,, , ,24.5155,,24.5107,,0.7129,83.6754,,,,1.9858E+00,,1.0000E-12,,15.3000,15.3003,0.1761,342.465,95.885,94.876,,,,,,,,,,,,
CalCOFI,2101RL,014,,2101_014d,18-Jan-2021 11:51:23,18-Jan-2021 03:51:23,30.84456,-121.58856,093.3 090.0,093.3,090.0,52.000,52.367,,15.3077,,15.3077,,15.3077,33.1953,,33.2011,33.1893,,33.1913,33.1962,5.4856,,5.7411,5.7509,5.4213,,5.7560,5.7357,5.7433,239.125,250.5763,250.9017,236.325,266.3632,250.2451,250.5734,0.0517,,0.1754,0.1728, ,, , ,24.5155,,24.5109,,0.7132,83.6697,,,,2.5505E+00,,1.0000E-12,,15.2999,15.2999,0.1795,342.496,95.887,94.760,,,,,,,,,,,,